Weather in Krasovka

Russia / Omsk Oblast     54°55′53″N   75°10′08″E
temp.,
°C
wind,
m/s
gust,
m/s
humid.,
%
clouds,
%
prec.,
mm/h
press.,
hPa
HPBL,
m
8 may, sat
sat800:00+11w34515 0.0 102056
03:00+10w34560 0.0 102051
06:00+9wnw33595 0.0 102136
09:00+16w45435 0.0 1021321
12:00+20w55315 0.0 10201505
15:00+22w45275 0.0 10192047
18:00+22wnw34270 0.0 10181967
21:00+17n22410 0.0 101811
9 may, sun
sun900:00+16ssw00413 0.0 101811
03:00+13ne224837 0.0 101717
06:00+12ene34606 0.0 101753
09:00+16ene675270 0.0 1017480
12:00+18ene7741100 0.0 1018971
15:00+20ene6739100 0.0 10171386
18:00+18ene7738100 0.0 10171306
21:00+14ene71240100 0.0 1019626
10 may, mon
mon1000:00+12e81443100 0.0 1019734
03:00+10e71547100 0.0 1019685
06:00+8ene71453100 0.0 1020673
09:00+10e81244100 0.0 1021982
12:00+14ene7935100 0.0 10211502
15:00+16ene783297 0.0 10201754
18:00+16ne78335 0.0 10202040
21:00+12ne38485 0.0 1021174
11 may, tue
tue1100:00+9ne410555 0.0 1021213
03:00+7nne48625 0.0 1022152
06:00+7nne38680 0.0 1022196
09:00+11ne46510 0.0 1023812
12:00+14nne56405 0.0 10231685
15:00+17n45332 0.0 10221795
18:00+17n463115 0.0 10211886
21:00+13nw3744100 0.0 1022126
12 may, wed
wed1200:00+11n2244100 0.0 102120
03:00+11nw1145100 0.0 102110
06:00+11sw1148100 0.0 102010
09:00+14s1143100 0.0 1020248
12:00+18s1134100 0.0 10191198
15:00+19e1129100 0.0 10192216
18:00+19e2229100 0.0 10192069
21:00+14se484288 0.0 1020178